TimeCST,TemperatureF,Dew PointF,Humidity,Sea Level PressureIn,VisibilityMPH,Wind Direction,Wind SpeedMPH,Gust SpeedMPH,PrecipitationIn,Events,Conditions,WindDirDegrees,DateUTC
12:55 AM,29.1,23.9,81,30.13,10.0,NNW,17.3,23.0,N/A,,Overcast,330,2013-02-28 06:55:00
1:55 AM,28.4,23.2,81,30.13,10.0,North,16.1,20.7,N/A,,Overcast,350,2013-02-28 07:55:00
2:55 AM,28.4,23.0,80,30.14,10.0,NNW,13.8,19.6,N/A,,Overcast,330,2013-02-28 08:55:00
3:55 AM,28.8,23.5,81,30.14,10.0,NNW,12.7,18.4,N/A,,Overcast,330,2013-02-28 09:55:00
4:55 AM,28.9,23.7,81,30.16,10.0,NW,13.8,-,N/A,,Overcast,320,2013-02-28 10:55:00
5:55 AM,28.8,23.7,81,30.17,10.0,NW,13.8,20.7,N/A,,Overcast,320,2013-02-28 11:55:00
6:55 AM,28.4,23.9,83,30.19,10.0,NNW,15.0,-,N/A,,Overcast,330,2013-02-28 12:55:00
7:55 AM,28.6,24.4,84,30.20,10.0,NNW,11.5,-,N/A,,Overcast,330,2013-02-28 13:55:00
8:01 AM,28.4,24.8,86,30.21,10.0,NW,15.0,21.9,N/A,,Overcast,320,2013-02-28 14:01:00
8:55 AM,28.4,24.4,85,30.22,10.0,NNW,10.4,-,N/A,,Overcast,340,2013-02-28 14:55:00
9:55 AM,28.0,23.9,84,30.23,10.0,NNW,9.2,-,N/A,,Overcast,340,2013-02-28 15:55:00
10:40 AM,28.4,24.8,86,30.24,10.0,NW,10.4,-,N/A,,Overcast,320,2013-02-28 16:40:00
10:55 AM,29.1,24.1,81,30.24,10.0,NNW,11.5,-,N/A,,Overcast,330,2013-02-28 16:55:00
11:55 AM,30.0,24.6,80,30.25,10.0,NW,15.0,-,N/A,,Overcast,310,2013-02-28 17:55:00
12:55 PM,30.4,24.6,79,30.23,10.0,NW,10.4,-,N/A,,Overcast,320,2013-02-28 18:55:00
1:55 PM,30.9,25.2,79,30.22,10.0,NW,12.7,-,N/A,,Overcast,320,2013-02-28 19:55:00
2:55 PM,32.2,24.3,73,30.21,10.0,NNW,11.5,-,N/A,,Overcast,330,2013-02-28 20:55:00
3:55 PM,31.1,23.7,74,30.22,10.0,NW,13.8,-,N/A,,Overcast,320,2013-02-28 21:55:00
4:55 PM,28.8,22.8,78,30.23,10.0,NW,10.4,-,N/A,,Overcast,320,2013-02-28 22:55:00
5:55 PM,28.6,22.6,78,30.24,10.0,NW,13.8,-,N/A,,Overcast,310,2013-02-28 23:55:00
6:55 PM,28.0,22.6,80,30.25,10.0,NNW,10.4,-,N/A,,Overcast,330,2013-03-01 00:55:00
7:55 PM,28.0,22.1,78,30.27,10.0,NW,10.4,-,N/A,,Overcast,320,2013-03-01 01:55:00
8:55 PM,27.9,22.6,81,30.26,10.0,WNW,11.5,-,N/A,,Overcast,300,2013-03-01 02:55:00
9:55 PM,27.3,21.7,80,30.26,10.0,NW,12.7,-,N/A,,Overcast,310,2013-03-01 03:55:00
10:55 PM,26.8,21.0,79,30.26,10.0,NNW,11.5,-,N/A,,Overcast,330,2013-03-01 04:55:00
11:55 PM,26.4,21.4,81,30.25,10.0,NW,10.4,-,N/A,,Overcast,320,2013-03-01 05:55:00